Capri, Italy

6:11 AM CET on February 20, 2017 (GMT +0100)
Capri

Weather History for LIQC - November, 2012

Change the Weather History Date:

Monday, November 5, 2012

  Actual Average (LIRN) Record (LIRN)
Temperature  
Mean Temperature 70 °F -  
Max Temperature 73 °F 66 °F 75 °F (2014)
Min Temperature 66 °F 51 °F 37 °F (2006)
Cooling Degree Days 4    
Growing Degree Days 20 (Base 50)    
Moisture  
Dew Point 67 °F    
Average Humidity 89    
Maximum Humidity 100    
Minimum Humidity 65    
Precipitation  
Precipitation 0.00 in - - ()
Sea Level Pressure  
Sea Level Pressure 29.81 in    
Wind  
Wind Speed 8 mph ()    
Max Wind Speed 13 mph    
Max Gust Speed 25 mph    
Visibility 6.1 miles    
Events Rain    
Averages and records for this station are not official NWS values.
T = Trace of Precipitation, MM = Missing Value Source: Averaged Metar Reports

Daily Weather History Graph

Daily Weather History Graph

Search for Another Location

Airport or City:

Trip Planner

Search our weather history database for the weather conditions in past years. The results will help you decide how hot, cold, wet, or windy it might be!

Date:

Astronomy

Nov. 05, 2012 Rise Set
Actual Time 6:38 AM CET 4:54 PM CET
Civil Twilight 6:09 AM CET 5:23 PM CET
Nautical Twilight 5:37 AM CET 5:55 PM CET
Astronomical Twilight 5:05 AM CET 6:27 PM CET
Moon 10:15 PM CET (11/5) 11:47 AM CET (11/5)
Length of Visible Light 11h 14m
Length of Day
10h 16m
Waning Gibbous, 65% of the Moon is Illuminated
Nov 5
Waning Gibbous
Nov 7
Last Quarter
Nov 13
New
Nov 20
First Quarter
Nov 28
Full

Hourly Weather History & Observations

Time (CET) Temp. Dew Point Humidity Pressure Visibility Wind Dir Wind Speed Gust Speed Precip Events Conditions
12:55 AM 68.0 °F 66.2 °F 94% 29.89 in 6.2 mi West 6.9 mph - N/A Rain Light Rain
1:00 AM 68 °F 66 °F 90% 29.88 in 6 mi West 6.9 mph - -   Overcast
4:00 AM 69 °F 66 °F 89% 29.82 in 6 mi SSW 9.2 mph - -   Partly Cloudy
5:55 AM 69.8 °F 68.0 °F 94% 29.80 in 6.2 mi SW 8.1 mph 25.3 mph N/A   Scattered Clouds
6:55 AM 71.6 °F 68.0 °F 88% 29.80 in 6.2 mi SSE 6.9 mph 23.0 mph N/A   Scattered Clouds
7:00 AM 71 °F 67 °F 85% 29.79 in 6 mi SSE 6.9 mph - -   Overcast
7:55 AM 71.6 °F 68.0 °F 88% 29.80 in 6.2 mi SSE 9.2 mph 23.0 mph N/A   Scattered Clouds
8:55 AM 71.6 °F 68.0 °F 88% 29.80 in 6.2 mi SW 11.5 mph 24.2 mph N/A   Scattered Clouds
9:55 AM 71.6 °F 69.8 °F 94% 29.80 in 6.2 mi WSW 9.2 mph - N/A   Mostly Cloudy
10:00 AM 72 °F 69 °F 89% 29.79 in 6 mi WSW 9.2 mph - -   Overcast
11:55 AM 73.4 °F 73.4 °F 100% 29.80 in 6.2 mi SW 9.2 mph - N/A   Mostly Cloudy
12:55 PM 71.6 °F 71.6 °F 100% 29.80 in 6.2 mi WSW 8.1 mph - N/A   Mostly Cloudy
1:00 PM 72 °F 72 °F 98% 29.78 in 6 mi WSW 8.1 mph - -   Overcast
1:55 PM 71.6 °F 71.6 °F 100% 29.80 in 6.2 mi WSW 9.2 mph - N/A   Mostly Cloudy
2:55 PM 73.4 °F 71.6 °F 94% 29.77 in 6.2 mi WSW 11.5 mph - N/A   Mostly Cloudy
3:55 PM 71.6 °F 69.8 °F 94% 29.80 in 6.2 mi WSW 10.4 mph - N/A   Mostly Cloudy
4:00 PM 71 °F 69 °F 93% 29.78 in 6 mi WSW 10.4 mph - -   Mostly Cloudy
4:55 PM 71.6 °F 69.8 °F 94% 29.80 in 6.2 mi WSW 11.5 mph - N/A   Mostly Cloudy
5:55 PM 69.8 °F 66.2 °F 88% 29.80 in 6.2 mi West 11.5 mph - N/A   Mostly Cloudy
6:55 PM 68.0 °F 64.4 °F 88% 29.80 in 6.2 mi West 12.7 mph - N/A   Mostly Cloudy
7:00 PM 68 °F 65 °F 85% 29.80 in 6 mi West 12.7 mph - -   Overcast
7:55 PM 68.0 °F 60.8 °F 78% 29.80 in 6.2 mi WSW 11.5 mph - N/A   Scattered Clouds
8:55 PM 66.2 °F 57.2 °F 73% 29.86 in 6.2 mi West 11.5 mph - N/A   Mostly Cloudy
9:55 PM 66.2 °F 57.2 °F 73% 29.89 in 6.2 mi West 11.5 mph - N/A   Mostly Cloudy
10:00 PM 66 °F 57 °F 65% 29.88 in 6 mi West 11.5 mph - -   Overcast